EN

Hourly Weather Almáskamarás

Today, 17 January, Sunday

Time Temperature Precipitation Wind Pressure Humidity
00:00 -7°C° 0 mm 3 mps 755 mmHg 82%
01:00 -7°C° 0 mm 3 mps 754 mmHg 83%
02:00 -7°C° 0 mm 3 mps 754 mmHg 85%
03:00 -7°C° 0 mm 3 mps 754 mmHg 87%
04:00 -6°C° 0 mm 2 mps 754 mmHg 89%
05:00 -6°C° 0.1 mm 2 mps 754 mmHg 90%
06:00 -6°C° 0.1 mm 2 mps 753 mmHg 92%
07:00 -6°C° 0.1 mm 2 mps 753 mmHg 94%
08:00 -6°C° 0.2 mm 2 mps 753 mmHg 93%
09:00 -5°C° 0.2 mm 2 mps 754 mmHg 92%
10:00 -5°C° 0.2 mm 2 mps 754 mmHg 91%
11:00 -4°C° 0.1 mm 2 mps 754 mmHg 88%
12:00 -4°C° 0.1 mm 2 mps 754 mmHg 84%
13:00 -1°C° 0.1 mm 1 mps 754 mmHg 81%
14:00 -2°C° 0 mm 1 mps 754 mmHg 83%
15:00 -2°C° 0 mm 1 mps 754 mmHg 85%
16:00 -3°C° 0 mm 1 mps 754 mmHg 87%
17:00 -3°C° 0 mm 1 mps 754 mmHg 88%
18:00 -4°C° 0 mm 1 mps 755 mmHg 90%
19:00 -4°C° 0 mm 1 mps 755 mmHg 91%
20:00 -4°C° 0 mm 1 mps 756 mmHg 91%
21:00 -6°C° 0 mm 1 mps 756 mmHg 92%
22:00 -6°C° 0 mm 1 mps 756 mmHg 92%
23:00 -6°C° 0 mm 1 mps 757 mmHg 92%

Tomorrow, 18 January, Monday

Time Temperature Precipitation Wind Pressure Humidity
00:00 -6°C° 0 mm 1 mps 757 mmHg 93%
01:00 -7°C° 0 mm 1 mps 757 mmHg 93%
02:00 -6°C° 0 mm 1 mps 757 mmHg 94%
03:00 -6°C° 0 mm 1 mps 757 mmHg 94%
04:00 -6°C° 0 mm 1 mps 757 mmHg 95%
05:00 -6°C° 0 mm 1 mps 757 mmHg 95%
06:00 -7°C° 0 mm 1 mps 758 mmHg 95%
07:00 -7°C° 0 mm 1 mps 758 mmHg 95%
08:00 -6°C° 0 mm 1 mps 758 mmHg 92%
09:00 -6°C° 0 mm 2 mps 758 mmHg 88%
10:00 -5°C° 0 mm 2 mps 759 mmHg 85%
11:00 -5°C° 0 mm 2 mps 759 mmHg 81%
12:00 -4°C° 0 mm 2 mps 759 mmHg 76%
13:00 -5°C° 0 mm 3 mps 758 mmHg 72%
14:00 -4°C° 0 mm 2 mps 758 mmHg 74%
15:00 -5°C° 0 mm 2 mps 758 mmHg 76%
16:00 -3°C° 0 mm 1 mps 758 mmHg 78%
17:00 -6°C° 0 mm 2 mps 758 mmHg 82%
18:00 -6°C° 0 mm 2 mps 759 mmHg 86%
19:00 -6°C° 0 mm 2 mps 759 mmHg 90%
20:00 -6°C° 0.1 mm 2 mps 759 mmHg 92%
21:00 -5°C° 0.1 mm 2 mps 759 mmHg 93%
22:00 -5°C° 0.1 mm 2 mps 759 mmHg 95%
23:00 -5°C° 0.1 mm 2 mps 759 mmHg 95%

Day after tomorrow, 19 January, Tuesday

Time Temperature Precipitation Wind Pressure Humidity
00:00 -5°C° 0.1 mm 2 mps 759 mmHg 96%
01:00 -5°C° 0.1 mm 2 mps 759 mmHg 96%
02:00 -5°C° 0.1 mm 2 mps 759 mmHg 96%
03:00 -5°C° 0.1 mm 2 mps 759 mmHg 96%
04:00 -5°C° 0.1 mm 2 mps 759 mmHg 97%
05:00 -5°C° 0.1 mm 2 mps 759 mmHg 97%
06:00 -5°C° 0.1 mm 2 mps 759 mmHg 96%
07:00 -5°C° 0.1 mm 2 mps 759 mmHg 96%
08:00 -4°C° 0.1 mm 2 mps 759 mmHg 96%
09:00 -4°C° 0.1 mm 3 mps 759 mmHg 95%
10:00 -4°C° 0.1 mm 3 mps 759 mmHg 94%
11:00 -2°C° 0.2 mm 3 mps 759 mmHg 94%
12:00 -2°C° 0.2 mm 3 mps 759 mmHg 93%
13:00 -1°C° 0.2 mm 3 mps 759 mmHg 92%
14:00 -1°C° 0 mm 3 mps 758 mmHg 91%
15:00 -2°C° 0 mm 4 mps 758 mmHg 91%
16:00 -3°C° 0 mm 4 mps 757 mmHg 90%
17:00 -3°C° 0 mm 4 mps 757 mmHg 90%
18:00 -4°C° 0 mm 5 mps 757 mmHg 90%
19:00 -4°C° 0 mm 5 mps 757 mmHg 90%
20:00 -4°C° 0 mm 5 mps 757 mmHg 89%
21:00 -4°C° 0 mm 5 mps 757 mmHg 88%
22:00 -4°C° 0 mm 5 mps 756 mmHg 87%
23:00 -4°C° 0 mm 5 mps 756 mmHg 86%

20 January, Wednesday

Time Temperature Precipitation Wind Pressure Humidity
00:00 -4°C° 0 mm 5 mps 756 mmHg 85%
01:00 -4°C° 0 mm 5 mps 756 mmHg 84%
02:00 -2°C° 0.1 mm 5 mps 756 mmHg 85%
03:00 -2°C° 0.1 mm 5 mps 756 mmHg 86%
04:00 -2°C° 0.1 mm 5 mps 756 mmHg 87%
05:00 -2°C° 0 mm 5 mps 756 mmHg 87%
06:00 -2°C° 0 mm 5 mps 756 mmHg 87%
07:00 -2°C° 0 mm 5 mps 756 mmHg 86%
08:00 -1°C° 0 mm 5 mps 757 mmHg 85%
09:00 -1°C° 0 mm 5 mps 757 mmHg 85%
10:00 -2°C° 0 mm 6 mps 757 mmHg 84%
11:00 0°C° 0 mm 5 mps 757 mmHg 83%
12:00 0°C° 0 mm 5 mps 756 mmHg 82%
13:00 +1°C° 0 mm 5 mps 756 mmHg 82%
14:00 +1°C° 0 mm 5 mps 756 mmHg 82%
15:00 0°C° 0 mm 5 mps 756 mmHg 81%
16:00 0°C° 0 mm 5 mps 756 mmHg 81%
17:00 -1°C° 0 mm 5 mps 756 mmHg 81%
18:00 -1°C° 0 mm 5 mps 756 mmHg 81%
19:00 -1°C° 0 mm 5 mps 756 mmHg 81%
20:00 -1°C° 0 mm 5 mps 756 mmHg 81%
21:00 -1°C° 0 mm 5 mps 756 mmHg 82%
22:00 -1°C° 0 mm 5 mps 756 mmHg 82%
23:00 -1°C° 0 mm 5 mps 756 mmHg 82%

21 January, Thursday

Time Temperature Precipitation Wind Pressure Humidity
00:00 -1°C° 0 mm 5 mps 756 mmHg 81%
01:00 0°C° 0 mm 5 mps 755 mmHg 81%
02:00 -1°C° 0 mm 5 mps 755 mmHg 81%
03:00 -1°C° 0 mm 5 mps 755 mmHg 81%
04:00 -1°C° 0 mm 5 mps 754 mmHg 81%
05:00 -1°C° 0 mm 5 mps 754 mmHg 80%
06:00 -2°C° 0 mm 6 mps 754 mmHg 80%
07:00 -2°C° 0 mm 6 mps 754 mmHg 80%
08:00 -2°C° 0 mm 6 mps 754 mmHg 78%
09:00 -1°C° 0 mm 6 mps 754 mmHg 77%
10:00 +1°C° 0 mm 6 mps 754 mmHg 76%
11:00 +2°C° 0 mm 6 mps 753 mmHg 76%
12:00 +2°C° 0 mm 6 mps 753 mmHg 75%
13:00 +3°C° 0 mm 6 mps 753 mmHg 75%
14:00 +3°C° 0 mm 6 mps 753 mmHg 76%
15:00 +2°C° 0 mm 6 mps 752 mmHg 78%
16:00 +2°C° 0 mm 6 mps 752 mmHg 80%
17:00 +1°C° 0 mm 6 mps 752 mmHg 81%
18:00 +1°C° 0 mm 6 mps 752 mmHg 83%
19:00 +1°C° 0 mm 6 mps 752 mmHg 84%
20:00 +1°C° 0 mm 6 mps 752 mmHg 84%
21:00 +1°C° 0 mm 6 mps 753 mmHg 84%
22:00 +1°C° 0 mm 6 mps 753 mmHg 84%
23:00 +1°C° 0 mm 6 mps 752 mmHg 84%

22 January, Friday

Time Temperature Precipitation Wind Pressure Humidity
00:00 +1°C° 0 mm 6 mps 752 mmHg 84%
01:00 0°C° 0 mm 5 mps 752 mmHg 84%
02:00 +1°C° 0 mm 5 mps 752 mmHg 84%
03:00 +1°C° 0 mm 5 mps 751 mmHg 84%
04:00 +1°C° 0 mm 6 mps 751 mmHg 84%
05:00 +1°C° 0 mm 6 mps 751 mmHg 84%
06:00 +1°C° 0 mm 6 mps 751 mmHg 84%
07:00 +2°C° 0 mm 6 mps 750 mmHg 84%
08:00 +2°C° 0 mm 6 mps 750 mmHg 82%
09:00 +3°C° 0 mm 7 mps 750 mmHg 81%
10:00 +4°C° 0 mm 7 mps 750 mmHg 79%
11:00 +5°C° 0 mm 7 mps 749 mmHg 78%
12:00 +6°C° 0 mm 7 mps 749 mmHg 77%
13:00 +8°C° 0 mm 7 mps 748 mmHg 76%
14:00 +6°C° 0.5 mm 7 mps 747 mmHg 78%
15:00 +6°C° 0.5 mm 7 mps 747 mmHg 80%
16:00 +5°C° 0.5 mm 7 mps 746 mmHg 81%
17:00 +6°C° 0.2 mm 7 mps 746 mmHg 80%
18:00 +6°C° 0.2 mm 8 mps 745 mmHg 79%
19:00 +6°C° 0.2 mm 8 mps 745 mmHg 78%
20:00 +6°C° 0.2 mm 9 mps 745 mmHg 77%
21:00 +6°C° 0.2 mm 9 mps 744 mmHg 76%
22:00 +6°C° 0.2 mm 10 mps 744 mmHg 75%
23:00 +6°C° 0.3 mm 9 mps 744 mmHg 77%
Show more